OMD109 LFOB-ELLX

Flight info

Callsign OMD109
Flight time N/A
Altitude 19000
Route DIKOL J10 SUIPE M163 MMD
Aircraft A320/M-SDE3FGHIRWY/LB1

Departure

Time N/A
Airport Beauvais-Tillé airport (LFOB)

Arrival

Time 2026-04-30 20:48
Airport Luxembourg-Findel International Airport (ELLX)
Time Latitude Longitude Altitude Speed Heading
2026-04-30 20:21 49.37194 2.82048 19197 ft 390 kts 97°
2026-04-30 20:21 49.36876 2.86297 19219 ft 410 kts 97°
2026-04-30 20:21 49.36554 2.90679 19217 ft 416 kts 97°
2026-04-30 20:22 49.36230 2.95095 19222 ft 417 kts 97°
2026-04-30 20:22 49.35902 2.99514 19216 ft 417 kts 97°
2026-04-30 20:22 49.35565 3.03933 19217 ft 417 kts 97°
2026-04-30 20:22 49.35219 3.08357 19216 ft 417 kts 97°
2026-04-30 20:23 49.34871 3.12770 19219 ft 417 kts 97°
2026-04-30 20:23 49.34518 3.17185 19217 ft 418 kts 98°
2026-04-30 20:23 49.34162 3.21607 19220 ft 417 kts 98°
2026-04-30 20:23 49.33807 3.26027 19225 ft 418 kts 98°
2026-04-30 20:24 49.33454 3.30447 19221 ft 418 kts 97°
2026-04-30 20:24 49.33099 3.34863 19227 ft 418 kts 98°
2026-04-30 20:24 49.32741 3.39279 19237 ft 418 kts 98°
2026-04-30 20:24 49.32384 3.43635 19236 ft 418 kts 98°
2026-04-30 20:25 49.31663 3.52463 19231 ft 418 kts 98°
2026-04-30 20:25 49.31301 3.56878 19236 ft 418 kts 98°
2026-04-30 20:26 49.30567 3.65777 19234 ft 418 kts 98°
2026-04-30 20:26 49.29831 3.74556 19244 ft 418 kts 98°
2026-04-30 20:26 49.29456 3.78964 19244 ft 418 kts 98°
2026-04-30 20:27 49.28697 3.87796 19247 ft 418 kts 98°
2026-04-30 20:27 49.27944 3.96620 19240 ft 418 kts 98°
2026-04-30 20:28 49.27208 4.05389 19227 ft 400 kts 97°
2026-04-30 20:28 49.26562 4.13537 19237 ft 380 kts 97°
2026-04-30 20:29 49.25928 4.21542 19237 ft 378 kts 97°
2026-04-30 20:30 49.24973 4.33531 19239 ft 378 kts 97°
2026-04-30 20:30 49.24016 4.45508 19242 ft 377 kts 97°
2026-04-30 20:31 49.23041 4.57487 19239 ft 378 kts 98°
2026-04-30 20:32 49.22058 4.69473 19245 ft 379 kts 98°
2026-04-30 20:32 49.21402 4.77466 19242 ft 379 kts 98°
2026-04-30 20:33 49.21073 4.81460 19254 ft 379 kts 98°
2026-04-30 20:33 49.20434 4.89201 19138 ft 350 kts 98°
2026-04-30 20:33 49.20143 4.92839 18785 ft 341 kts 98°
2026-04-30 20:34 49.19573 4.99979 17706 ft 336 kts 98°
2026-04-30 20:34 49.19631 5.07012 16654 ft 334 kts 73°
2026-04-30 20:35 49.20668 5.10181 16148 ft 334 kts 61°
2026-04-30 20:35 49.21866 5.13218 15642 ft 333 kts 61°
2026-04-30 20:35 49.24220 5.19257 14690 ft 328 kts 61°
2026-04-30 20:36 49.25376 5.22258 14221 ft 326 kts 61°
2026-04-30 20:36 49.26521 5.25240 13721 ft 324 kts 62°
2026-04-30 20:36 49.28781 5.31149 12672 ft 319 kts 62°
2026-04-30 20:37 49.29897 5.34079 12157 ft 317 kts 62°
2026-04-30 20:37 49.30988 5.36941 11679 ft 313 kts 62°
2026-04-30 20:37 49.32082 5.39812 11169 ft 311 kts 62°
2026-04-30 20:37 49.33181 5.42700 10657 ft 308 kts 62°
2026-04-30 20:38 49.34255 5.45525 10183 ft 305 kts 62°
2026-04-30 20:38 49.35281 5.48220 10048 ft 289 kts 62°
2026-04-30 20:38 49.36277 5.50833 9727 ft 280 kts 62°
2026-04-30 20:39 49.38223 5.55960 8757 ft 276 kts 62°
2026-04-30 20:39 49.39182 5.58498 8281 ft 274 kts 62°
2026-04-30 20:39 49.40136 5.61024 7766 ft 273 kts 62°
2026-04-30 20:40 49.42005 5.65963 7204 ft 258 kts 63°
2026-04-30 20:40 49.42886 5.68295 6972 ft 248 kts 63°
2026-04-30 20:40 49.43737 5.70552 6734 ft 240 kts 63°
2026-04-30 20:41 49.45389 5.74940 6231 ft 235 kts 64°
2026-04-30 20:41 49.46205 5.77113 5997 ft 234 kts 64°
2026-04-30 20:41 49.47015 5.79271 5749 ft 230 kts 64°
2026-04-30 20:41 49.47810 5.81387 5493 ft 227 kts 64°
2026-04-30 20:42 49.48595 5.83478 5247 ft 224 kts 64°
2026-04-30 20:42 49.49369 5.85542 5003 ft 222 kts 65°
2026-04-30 20:42 49.50883 5.89591 4493 ft 215 kts 66°
2026-04-30 20:43 49.51608 5.91588 4365 ft 213 kts 67°
2026-04-30 20:43 49.52330 5.93568 4243 ft 212 kts 66°
2026-04-30 20:43 49.53064 5.95532 4119 ft 211 kts 66°
2026-04-30 20:44 49.54515 5.99395 3878 ft 201 kts 66°
2026-04-30 20:44 49.55196 6.01204 3757 ft 192 kts 67°
2026-04-30 20:44 49.56484 6.04639 3310 ft 174 kts 68°
2026-04-30 20:45 49.57550 6.07471 2898 ft 132 kts 71°
2026-04-30 20:45 49.57987 6.08644 2733 ft 122 kts 71°
2026-04-30 20:45 49.58403 6.09765 2571 ft 119 kts 70°
2026-04-30 20:46 49.59637 6.13089 2073 ft 119 kts 66°
2026-04-30 20:46 49.60048 6.14191 1888 ft 120 kts 64°
2026-04-30 20:47 49.60881 6.16421 1561 ft 119 kts 62°
2026-04-30 20:47 49.61292 6.17527 1374 ft 118 kts 60°
2026-04-30 20:48 49.62085 6.19653 1191 ft 94 kts 60°
2026-04-30 20:48 49.62334 6.20320 1226 ft 52 kts 60°
2026-04-30 20:48 49.62429 6.20549 1232 ft 15 kts 38°
2026-04-30 20:48 49.62525 6.20612 1243 ft 16 kts 21°
2026-04-30 20:49 49.62640 6.20681 1241 ft 19 kts 21°
2026-04-30 20:49 49.62772 6.20757 1251 ft 20 kts 20°
2026-04-30 20:49 49.62839 6.20877 1247 ft 18 kts 64°
2026-04-30 20:50 49.62957 6.21261 1232 ft 20 kts 65°
2026-04-30 20:50 49.63018 6.21456 1228 ft 23 kts 64°
2026-04-30 20:50 49.63083 6.21670 1226 ft 22 kts 65°
2026-04-30 20:50 49.63148 6.21876 1227 ft 18 kts 64°
2026-04-30 20:51 49.63204 6.22058 1228 ft 17 kts 64°
2026-04-30 20:51 49.63319 6.22048 1230 ft 8 kts 315°
2026-04-30 20:51 49.63308 6.22001 1230 ft 6 kts 213°
2026-04-30 20:52 49.63281 6.21978 1230 ft 0 kts 207°
2026-04-30 20:52 49.63280 6.21977 1230 ft 0 kts 207°
2026-04-30 20:52 49.63260 6.21962 1229 ft 2 kts 206°
2026-04-30 20:53 49.63259 6.21961 1229 ft 0 kts 206°
2026-04-30 20:53 49.63245 6.21945 1229 ft 9 kts 229°
2026-04-30 20:53 49.63206 6.21818 1228 ft 14 kts 241°
2026-04-30 20:54 49.63160 6.21666 1229 ft 0 kts 240°
2026-04-30 20:54 49.63159 6.21665 1229 ft 0 kts 240°